FW2982 Weather Reports


Display with metric or nautical units.
time (UTC)temp
F
wind
direction
speed
MPH
gust
MPH
rain 1hr
in
rain 24hr
in
rain mn
in
humidity
%
barometer
mb
20260901014426 75 62 0.0 0.0 0.00 0.01 0.01 94 1016.4
20260901013927 76 62 0.0 0.0 0.00 0.02 0.01 94 1016.3
20260901013425 76 62 0.0 0.0 0.00 0.03 0.01 94 1016.3
20260901012925 76 62 0.0 0.0 0.00 0.03 0.01 94 1016.2
20260901012423 76 62 0.0 0.0 0.00 0.03 0.01 94 1016.3
20260901011923 76 62 0.0 0.0 0.00 0.04 0.01 94 1016.2
20260901011707 76 62 0.0 0.0 0.00 0.05 0.01 94 1016.1
20260901010925 77 62 0.0 0.0 0.00 0.06 0.01 94 1016.2
20260901010423 77 62 0.0 0.0 0.00 0.07 0.01 94 1016.2
20260901010209 77 62 0.0 0.0 0.00 0.08 0.01 94 1016.2
20260901005424 77 62 0.0 0.0 0.00 0.09 0.01 94 1016.0
20260901004923 77 62 0.0 0.0 0.00 0.10 0.01 93 1015.9
20260901004423 77 62 0.0 0.0 0.00 0.11 0.01 93 1015.8
20260901003922 77 62 0.0 0.0 0.00 0.13 0.01 93 1015.8
20260901003422 77 62 0.0 0.0 0.00 0.14 0.01 93 1015.8
20260901003204 77 62 0.0 0.0 0.00 0.16 0.01 93 1015.8
20260901002422 78 62 0.0 0.0 0.00 0.18 0.01 92 1015.8
20260901001923 78 62 0.0 0.0 0.00 0.20 0.01 92 1015.8
20260901001701 78 62 0.0 0.0 0.00 0.23 0.01 92 1015.8
20260901000923 78 62 0.0 0.0 0.00 0.25 0.01 92 1015.7
20260901000422 78 62 0.0 0.0 0.00 0.28 0.01 91 1015.8
20260901000204 78 62 0.0 0.0 0.00 0.31 0.01 91 1015.9
20260831235422 78 62 0.0 0.0 0.00 0.35 0.01 91 1015.8
20260831234921 78 62 0.0 0.0 0.00 0.39 0.01 90 1015.8
20260831234420 78 62 0.0 0.0 0.00 0.43 0.01 90 1015.8
20260831234200 79 62 0.0 0.0 0.00 0.47 0.01 89 1015.7
20260831233452 80 62 0.0 0.0 0.00 0.51 0.01 88 1015.8
20260831233441 79 62 0.0 0.0 0.00 0.50 0.01 89 1015.8
20260831232420 80 62 0.0 0.0 0.00 0.51 0.01 87 1015.8
20260831231919 80 62 0.0 0.0 0.00 0.51 0.01 87 1015.8
20260831231419 81 62 0.0 0.0 0.00 0.51 0.01 86 1015.8
20260831230919 81 62 0.0 0.0 0.00 0.51 0.01 86 1015.9
20260831230419 81 62 0.0 0.0 0.00 0.51 0.01 86 1015.9
20260831225919 81 62 0.0 0.0 0.00 0.51 0.01 87 1015.9
20260831225420 81 62 0.0 0.0 0.00 0.51 0.01 87 1015.9
20260831224919 81 62 0.0 0.0 0.00 0.51 0.01 86 1016.0
20260831224418 81 62 0.0 0.0 0.00 0.51 0.01 87 1016.0
20260831224159 81 62 0.0 0.0 0.00 0.51 0.01 86 1016.1
20260831223420 81 62 0.0 0.0 0.00 0.51 0.01 86 1016.2
20260831222918 81 62 0.0 0.0 0.00 0.51 0.01 85 1016.2
20260831222659 82 62 0.0 0.0 0.00 0.51 0.01 84 1016.3
20260831221918 82 62 0.0 0.0 0.00 0.51 0.01 84 1016.5
20260831221417 82 62 0.0 0.0 0.00 0.51 0.01 85 1016.5
20260831221157 82 62 0.0 0.0 0.00 0.51 0.01 84 1016.5
20260831220417 82 62 0.0 0.0 0.00 0.51 0.01 85 1016.6
20260831215917 82 62 0.0 0.0 0.00 0.51 0.01 84 1016.5
20260831215417 82 62 0.0 0.0 0.00 0.51 0.01 84 1016.6
20260831214918 82 62 0.0 0.0 0.00 0.51 0.01 84 1016.4
20260831214420 82 62 0.0 0.0 0.00 0.51 0.01 83 1016.5
20260831213918 82 62 0.0 0.0 0.00 0.51 0.01 85 1016.4
20260831213417 83 62 0.0 0.0 0.00 0.51 0.01 83 1016.4
20260831212917 82 62 0.0 0.0 0.00 0.51 0.01 84 1016.5
20260831212440 82 62 0.0 0.0 0.00 0.51 0.01 85 1016.5
20260831212431 82 62 0.0 0.0 0.00 0.51 0.01 85 1016.5
20260831211417 82 62 0.0 0.0 0.00 0.51 0.01 84 1016.5
20260831210916 83 62 0.0 0.0 0.00 0.51 0.01 83 1016.5
20260831210416 83 62 0.0 0.0 0.00 0.51 0.01 83 1016.5
20260831205914 83 62 0.0 0.0 0.00 0.51 0.01 83 1016.5
20260831205405 83 62 0.0 0.0 0.00 0.51 0.01 83 1016.5
20260831204904 83 62 0.0 0.0 0.00 0.51 0.01 83 1016.4
20260831204403 84 76 0.0 0.0 0.00 0.51 0.01 80 1016.4
20260831204142 84 76 0.0 0.0 0.00 0.51 0.01 80 1016.4
20260831203403 84 76 0.0 1.0 0.00 0.51 0.01 80 1016.5
20260831202904 84 76 0.0 1.0 0.00 0.51 0.01 80 1016.5
20260831202726 84 76 0.0 1.0 0.00 0.51 0.01 80 1016.4
20260831202720 84 76 0.0 1.0 0.00 0.51 0.01 81 1016.4
20260831202429 84 76 0.0 1.0 0.00 0.51 0.01 80 1016.5
20260831200901 84 56 0.0 1.0 0.00 0.51 0.01 79 1016.4
20260831200402 85 56 0.0 1.0 0.00 0.51 0.01 79 1016.5
20260831195902 85 56 0.0 0.0 0.00 0.51 0.01 78 1016.5
20260831195405 85 73 0.0 1.0 0.00 0.51 0.01 76 1016.5
20260831194833 84 73 0.0 1.0 0.00 0.51 0.01 77 1016.5
20260831194332 84 73 0.0 1.0 0.00 0.51 0.01 79 1016.4
20260831193831 83 73 0.0 0.0 0.00 0.51 0.01 82 1016.5
20260831193332 83 73 0.0 0.0 0.00 0.51 0.01 81 1016.5
20260831192832 83 73 0.0 0.0 0.00 0.51 0.01 80 1016.6
20260831192332 83 73 0.0 0.0 0.00 0.51 0.01 79 1016.5
20260831191827 84 73 0.0 0.0 0.00 0.51 0.01 77 1016.7
20260831191314 85 73 0.0 0.0 0.00 0.51 0.01 76 1016.8
20260831190814 85 73 0.0 0.0 0.00 0.51 0.01 74 1016.8
20260831190546 86 73 0.0 1.0 0.00 0.51 0.01 73 1016.9
20260831185806 86 73 0.0 1.0 0.00 0.51 0.01 75 1016.9
20260831185306 87 73 0.0 2.0 0.00 0.51 0.01 72 1017.0
20260831184804 86 73 0.0 3.0 0.00 0.51 0.01 73 1017.0
20260831184304 86 73 1.0 3.0 0.00 0.51 0.01 72 1017.1
20260831183805 87 312 1.0 2.0 0.00 0.51 0.01 71 1017.0
20260831183305 87 312 1.0 3.0 0.00 0.51 0.01 71 1017.0
20260831182804 86 32 1.0 3.0 0.00 0.51 0.01 74 1017.1
20260831182305 86 281 1.0 3.0 0.00 0.51 0.01 74 1017.1
20260831181803 86 97 0.0 1.0 0.00 0.51 0.01 75 1017.0
20260831181303 87 97 0.0 1.0 0.00 0.51 0.01 75 1017.1
20260831180804 87 97 0.0 1.0 0.00 0.51 0.01 75 1017.0
20260831180303 87 97 0.0 3.0 0.00 0.51 0.01 71 1017.0
20260831175803 87 118 0.0 3.0 0.00 0.51 0.01 70 1017.1
20260831175542 88 172 0.0 1.0 0.00 0.51 0.01 72 1017.1
20260831174802 88 173 1.0 2.0 0.00 0.51 0.01 71 1017.2
20260831174543 87 0 1.0 2.0 0.00 0.51 0.01 70 1017.1
20260831173827 86 94 0.0 2.0 0.00 0.51 0.01 76 1017.3
20260831173817 86 109 1.0 2.0 0.00 0.51 0.01 71 1017.2
20260831172802 84 93 0.0 2.0 0.00 0.51 0.01 76 1017.4
20260831172305 85 93 0.0 2.0 0.00 0.51 0.01 76 1017.4
20260831171802 85 93 0.0 2.0 0.00 0.51 0.01 74 1017.4
20260831171305 85 92 1.0 2.0 0.00 0.51 0.01 76 1017.4
20260831170804 85 93 1.0 3.0 0.00 0.51 0.01 77 1017.4
20260831170605 87 90 1.0 3.0 0.00 0.51 0.01 72 1017.3
20260831170316 85 93 1.0 3.0 0.00 0.51 0.01 75 1017.3
20260831165305 87 71 0.0 2.0 0.00 0.51 0.01 74 1017.6
20260831164803 86 71 0.0 1.0 0.00 0.51 0.01 75 1017.7
20260831164543 85 68 0.0 2.0 0.00 0.51 0.01 77 1017.8
20260831163803 85 68 0.0 2.0 0.00 0.51 0.01 77 1017.9
20260831163304 84 41 0.0 2.0 0.00 0.51 0.01 77 1017.8
20260831162803 84 41 1.0 4.0 0.00 0.51 0.01 78 1018.0
20260831162542 84 99 0.0 4.0 0.00 0.51 0.01 75 1017.9
20260831161800 85 54 1.0 3.0 0.00 0.51 0.01 76 1018.0
20260831161259 86 71 0.0 4.0 0.00 0.51 0.01 74 1018.0
20260831160759 86 39 3.0 4.0 0.00 0.51 0.01 79 1018.0
20260831160300 84 83 2.0 3.0 0.00 0.51 0.01 80 1018.1
20260831155758 84 264 0.0 3.0 0.00 0.51 0.01 78 1018.2
20260831155259 85 258 1.0 3.0 0.00 0.51 0.01 76 1018.0
20260831154758 87 61 1.0 3.0 0.00 0.51 0.01 76 1017.9
20260831154258 85 42 0.0 3.0 0.00 0.51 0.01 77 1017.9
20260831153757 85 35 1.0 6.0 0.00 0.51 0.01 76 1017.8
20260831153258 85 94 1.0 6.0 0.00 0.51 0.01 75 1017.8
20260831152757 86 49 2.0 4.0 0.00 0.51 0.01 77 1017.7
20260831152258 85 106 1.0 4.0 0.00 0.51 0.01 77 1017.7
20260831151758 84 114 2.0 6.0 0.00 0.51 0.01 79 1017.7
20260831151541 84 100 1.0 6.0 0.00 0.51 0.01 80 1017.7
20260831151036 84 38 2.0 4.0 0.00 0.51 0.01 81 1017.7
20260831150536 82 104 1.0 4.0 0.00 0.51 0.01 82 1017.7
20260831145756 83 125 1.0 4.0 0.00 0.51 0.01 80 1017.9
20260831145256 82 49 2.0 4.0 0.00 0.51 0.01 81 1018.1
20260831144756 82 341 2.0 5.0 0.00 0.51 0.01 83 1018.0
20260831144258 81 272 1.0 5.0 0.00 0.51 0.01 85 1018.0
20260831143756 80 94 1.0 3.0 0.00 0.51 0.01 86 1018.0
20260831143256 81 103 0.0 0.0 0.00 0.51 0.01 83 1017.9
20260831142822 83 54 0.0 3.0 0.00 0.51 0.01 82 1017.8
20260831142812 82 103 0.0 3.0 0.00 0.51 0.01 82 1017.8
20260831141757 82 52 2.0 3.0 0.00 0.51 0.01 84 1017.7
20260831141256 81 80 1.0 3.0 0.00 0.51 0.01 83 1017.7
20260831140755 80 63 1.0 3.0 0.00 0.51 0.01 84 1017.7
20260831140256 80 37 1.0 3.0 0.00 0.51 0.01 86 1017.7
20260831135757 80 79 1.0 3.0 0.00 0.51 0.01 86 1017.6
20260831135255 79 63 1.0 3.0 0.00 0.51 0.01 88 1017.8
20260831134755 78 52 1.0 2.0 0.00 0.51 0.01 88 1017.8
20260831134256 78 52 1.0 2.0 0.00 0.51 0.01 88 1017.9
20260831133754 78 52 1.0 2.0 0.00 0.51 0.01 87 1017.8
20260831133255 78 52 0.0 3.0 0.00 0.51 0.01 86 1017.7
20260831132755 78 52 2.0 4.0 0.00 0.51 0.01 88 1017.7
20260831132254 78 52 2.0 4.0 0.00 0.51 0.01 90 1017.9
20260831131756 77 55 0.0 3.0 0.00 0.51 0.01 93 1017.8
20260831131254 76 55 1.0 3.0 0.00 0.51 0.01 95 1017.8
20260831130755 75 75 1.0 3.0 0.00 0.51 0.01 96 1017.7
20260831130254 74 75 1.0 3.0 0.00 0.51 0.01 97 1017.7
20260831130058 73 90 0.0 0.0 0.00 0.51 0.01 97 1017.9
20260831125810 74 90 0.0 0.0 0.00 0.51 0.01 97 1017.8
20260831124755 73 90 0.0 0.0 0.00 0.51 0.01 97 1017.9
20260831124254 73 90 0.0 0.0 0.00 0.51 0.01 97 1017.9
20260831123754 73 90 0.0 0.0 0.00 0.51 0.01 97 1017.9
20260831123253 72 90 0.0 0.0 0.00 0.51 0.01 97 1017.8
20260831122754 72 90 0.0 0.0 0.00 0.51 0.01 97 1017.8
20260831122254 71 90 0.0 1.0 0.00 0.51 0.01 97 1017.7
20260831121753 71 90 0.0 1.0 0.00 0.51 0.01 97 1017.6
20260831121318 70 90 0.0 0.0 0.00 0.51 0.01 97 1017.5
20260831121309 71 90 0.0 0.0 0.00 0.51 0.01 97 1017.5
20260831120253 70 90 0.0 0.0 0.00 0.51 0.01 97 1017.4
20260831115753 70 90 0.0 1.0 0.00 0.51 0.01 97 1017.5
20260831115534 70 90 0.0 1.0 0.00 0.51 0.01 97 1017.5
20260831114752 69 90 0.0 0.0 0.00 0.51 0.01 97 1017.5
20260831114322 69 90 0.0 0.0 0.00 0.51 0.01 97 1017.4
20260831114311 69 90 0.0 0.0 0.00 0.51 0.01 97 1017.4
20260831113533 69 90 0.0 0.0 0.00 0.51 0.01 97 1017.2
20260831113033 69 90 0.0 0.0 0.00 0.51 0.01 97 1017.2
20260831112252 68 90 0.0 0.0 0.00 0.51 0.01 97 1017.1
20260831111752 68 90 0.0 0.0 0.00 0.51 0.01 97 1017.1
20260831111252 68 90 0.0 0.0 0.00 0.51 0.01 97 1016.9
20260831110751 68 90 0.0 0.0 0.00 0.51 0.01 97 1017.0
20260831110251 68 90 0.0 0.0 0.00 0.51 0.01 97 1017.0
20260831105751 68 90 0.0 0.0 0.00 0.51 0.01 97 1017.0
20260831105251 68 90 0.0 0.0 0.00 0.51 0.01 97 1016.9
20260831104751 68 90 0.0 0.0 0.00 0.51 0.01 97 1016.9
20260831104252 68 90 0.0 0.0 0.00 0.51 0.01 97 1016.8
20260831103751 68 90 0.0 0.0 0.00 0.51 0.01 97 1016.7
20260831103251 68 90 0.0 0.0 0.00 0.51 0.01 97 1016.6
20260831102751 68 90 0.0 1.0 0.00 0.51 0.01 97 1016.6
20260831102315 68 90 0.0 1.0 0.00 0.51 0.01 97 1016.5
20260831102307 68 90 0.0 1.0 0.00 0.51 0.01 97 1016.6
20260831101251 68 90 0.0 0.0 0.00 0.51 0.01 97 1016.6
20260831100750 68 90 0.0 0.0 0.00 0.51 0.01 97 1016.6
20260831100251 68 90 0.0 0.0 0.00 0.51 0.01 97 1016.6
20260831095752 68 90 0.0 0.0 0.00 0.51 0.01 97 1016.6
20260831095251 68 90 0.0 0.0 0.00 0.51 0.01 97 1016.6
20260831094750 68 90 0.0 0.0 0.00 0.51 0.01 97 1016.6
20260831094251 68 90 0.0 0.0 0.00 0.51 0.01 97 1016.6
20260831093751 68 90 0.0 1.0 0.00 0.51 0.01 97 1016.5
20260831093250 68 90 0.0 1.0 0.00 0.51 0.01 97 1016.5
20260831092749 68 90 1.0 1.0 0.00 0.51 0.01 97 1016.4
20260831092249 68 90 0.0 0.0 0.00 0.51 0.01 97 1016.4
20260831091749 68 90 0.0 0.0 0.00 0.51 0.01 97 1016.3
20260831091532 68 90 0.0 0.0 0.01 0.51 0.01 97 1016.4
20260831090749 68 90 0.0 0.0 0.01 0.51 0.01 97 1016.4
20260831090251 68 90 0.0 0.0 0.01 0.51 0.01 97 1016.5
20260831085750 69 90 0.0 0.0 0.01 0.50 0.01 97 1016.5
20260831085247 68 90 0.0 0.0 0.01 0.50 0.01 97 1016.6
20260831084749 68 90 0.0 0.0 0.01 0.50 0.01 97 1016.5
20260831084250 69 90 0.0 0.0 0.01 0.50 0.01 97 1016.4
20260831083748 69 90 0.0 0.0 0.01 0.50 0.01 97 1016.4
20260831083532 69 90 0.0 0.0 0.01 0.50 0.01 97 1016.5
20260831082750 69 90 0.0 1.0 0.01 0.50 0.01 97 1016.4
20260831082248 69 90 0.0 2.0 0.01 0.50 0.01 97 1016.4
20260831081749 69 90 1.0 2.0 0.01 0.50 0.01 97 1016.4
20260831081248 69 90 1.0 2.0 0.00 0.50 0.00 97 1016.4
20260831080749 68 90 0.0 2.0 0.00 0.50 0.00 97 1016.3
20260831080248 69 92 0.0 0.0 0.00 0.50 0.00 97 1016.3
20260831075748 69 92 0.0 0.0 0.00 0.50 0.00 97 1016.1
20260831075247 68 92 0.0 0.0 0.00 0.50 0.00 96 1016.2
20260831074748 68 92 0.0 0.0 0.00 0.50 0.00 96 1016.1
20260831074247 68 92 0.0 0.0 0.00 0.50 0.00 96 1016.1
20260831073750 68 92 0.0 0.0 0.00 0.50 0.00 96 1016.2
20260831073248 68 92 0.0 0.0 0.00 0.50 0.00 96 1016.2
20260831072747 68 92 0.0 0.0 0.00 0.50 0.00 96 1016.2
20260831072247 68 92 0.0 0.0 0.00 0.50 0.00 96 1016.2
20260831071747 68 92 0.0 0.0 0.00 0.50 0.00 96 1016.2
20260831071248 68 92 0.0 0.0 0.00 0.50 0.00 96 1016.2
20260831070746 68 92 0.0 0.0 0.00 0.50 0.00 96 1016.2
20260831070249 69 92 0.0 0.0 0.00 0.50 0.00 96 1016.3
20260831065748 68 92 0.0 0.0 0.00 0.50 0.00 96 1016.3
20260831065248 68 92 0.0 0.0 0.00 0.50 0.00 96 1016.4
20260831064748 69 92 0.0 0.0 0.00 0.50 0.00 96 1016.3
20260831064246 69 92 0.0 0.0 0.00 0.50 0.00 96 1016.4
20260831064029 69 92 0.0 0.0 0.00 0.50 0.00 96 1016.4
20260831063525 69 92 0.0 0.0 0.00 0.50 0.00 96 1016.5
20260831062745 69 92 0.0 0.0 0.00 0.50 0.00 96 1016.5
20260831062248 69 92 0.0 0.0 0.00 0.50 0.00 96 1016.5
20260831061745 69 92 0.0 0.0 0.00 0.50 0.00 96 1016.4
20260831061246 69 92 0.0 0.0 0.00 0.50 0.00 96 1016.4
20260831061026 69 92 0.0 0.0 0.00 0.50 0.00 96 1016.4
20260831060245 69 92 0.0 0.0 0.00 0.50 0.00 96 1016.5
20260831055746 69 92 0.0 0.0 0.00 0.50 0.00 96 1016.5
20260831055244 69 92 0.0 0.0 0.00 0.50 0.00 96 1016.5
20260831054745 69 92 0.0 0.0 0.00 0.50 0.00 96 1016.6
20260831054245 69 92 0.0 0.0 0.00 0.50 0.00 96 1016.7
20260831053745 69 92 0.0 0.0 0.00 0.50 0.00 96 1016.7
20260831053246 69 92 0.0 0.0 0.00 0.50 0.00 96 1016.7
20260831052746 69 92 0.0 0.0 0.00 0.50 0.00 96 1016.7
20260831052244 69 92 0.0 0.0 0.00 0.50 0.00 96 1016.7
20260831052025 69 92 0.0 0.0 0.00 0.50 0.00 96 1016.8
20260831051244 69 92 0.0 0.0 0.00 0.50 0.00 96 1016.7
20260831050741 70 92 0.0 0.0 0.00 0.50 0.00 96 1016.7
20260831050238 70 92 0.0 0.0 0.00 0.50 0.00 96 1016.7
20260831045735 70 92 0.0 0.0 0.00 0.50 0.00 96 1016.8
20260831045233 70 92 0.0 1.0 0.00 0.50 0.00 96 1016.9
20260831044732 70 92 0.0 1.0 0.00 0.50 0.00 96 1016.9
20260831044231 70 92 1.0 1.0 0.00 0.50 0.00 96 1016.8
20260831043732 70 92 0.0 0.0 0.00 0.50 0.00 96 1016.8
20260831043230 70 92 0.0 0.0 0.00 0.50 0.00 96 1016.8
20260831042731 70 92 0.0 0.0 0.00 0.50 0.00 96 1016.8
20260831042232 70 92 0.0 0.0 0.00 0.50 0.00 96 1016.9
20260831041731 70 92 0.0 0.0 0.00 0.50 0.00 96 1016.9
20260831041232 70 92 0.0 0.0 0.00 0.50 0.00 96 1017.0
20260831041013 70 92 0.0 0.0 0.00 0.50 0.00 96 1017.0
20260831040232 70 92 0.0 0.0 0.00 0.50 0.00 96 1017.0
20260831035732 70 92 0.0 0.0 0.00 0.50 0.50 96 1017.1
20260831035232 71 92 0.0 0.0 0.00 0.50 0.50 96 1017.2
20260831034732 70 92 0.0 0.0 0.00 0.50 0.50 96 1017.2
20260831034232 70 92 0.0 0.0 0.00 0.50 0.50 96 1017.1
20260831033732 70 92 0.0 0.0 0.00 0.50 0.50 96 1017.1
20260831033233 71 92 0.0 0.0 0.00 0.50 0.50 96 1017.1
20260831032730 71 92 0.0 0.0 0.00 0.50 0.50 96 1017.1
20260831032233 71 92 0.0 0.0 0.00 0.50 0.50 96 1017.0
20260831031732 71 92 0.0 0.0 0.00 0.50 0.50 96 1016.9
20260831031535 70 92 0.0 0.0 0.00 0.50 0.50 96 1017.1
20260831031247 70 92 0.0 0.0 0.00 0.50 0.50 96 1017.0
20260831030231 70 92 0.0 0.0 0.00 0.50 0.50 96 1017.1
20260831025731 70 92 0.0 0.0 0.00 0.50 0.50 95 1017.1
20260831025231 70 92 0.0 0.0 0.00 0.50 0.50 95 1017.2
20260831024731 70 92 0.0 0.0 0.00 0.50 0.50 95 1017.2
20260831024233 70 92 0.0 0.0 0.01 0.50 0.50 95 1017.2
20260831023731 70 92 0.0 0.0 0.01 0.50 0.50 95 1017.3
20260831023232 70 92 0.0 0.0 0.02 0.50 0.50 95 1017.5
20260831022731 70 92 0.0 0.0 0.02 0.50 0.50 95 1017.4
20260831022513 70 92 0.0 0.0 0.03 0.50 0.50 95 1017.5
20260831021731 70 92 0.0 0.0 0.04 0.50 0.50 95 1017.5
20260831021232 70 92 0.0 0.0 0.04 0.50 0.50 95 1017.4
20260831021011 70 92 0.0 0.0 0.05 0.50 0.50 95 1017.4
20260831020231 71 92 0.0 1.0 0.06 0.50 0.50 95 1017.6
20260831015732 71 92 0.0 1.0 0.07 0.43 0.50 95 1017.6
20260831015232 71 92 0.0 0.0 0.08 0.43 0.50 95 1017.5
20260831015013 71 92 0.0 0.0 0.10 0.43 0.50 95 1017.5